EHI
0 0 0 0 0 0 0 0 0 0 0 0 0 0 0 0 0 0 0 0 0 0 0 0 0 0 0 0 0 0 0 0 0 0 0 0 0 0
0 0 0 0 0 0 0 0 0 0 0 0 0 0 0 0 0 0 0 0 0 0 0 0 0 0 0 0 0 0 0 0 0 0 0 0 0 0
0 0 0 0 0 0 0 0 0 0 0 0 0 0 0 0 0 0 0 0 0 0 0 0 0 0 0 0 0 0 0 0 0 0 0 0 0 0
0 0 0 0 0 0 0 0 0 0 0 0 0 0 0 0 0 0 0 0 0 0 0 0 0 0 0 0 0 0 0 0 0 0 0 0 0 0
0 0 0 0 0 0 0 0 0 0 0 0 0 0 0 0 0 0 0 0 0 0 0 0 0 0 0 0 0 0 0 0 0 0 0 0 0 0
0 0 0 0 0 0 0 0 0 0 0 0 0 0 0 0 0 0 0 0 0 0 0 0 0 0 0 0 0 0 0 0 0 0 0 0 0 0
0 0 0 0 0 0 0 0 0 0 0 0 0 0 0 0 0 0 0 0 0 0 0 0 0 0 0 0 0 0 0 0 0 0 0 0 0 0
0 0 0 0 0 0 0 0 0 0 0 0 0 0 0 0 0 0 0 0 0 0 0 0 0 0 0 0 0 0 0 0 0 0 0 0 0 0
0 0 0 0 0 0 0 0 0 0 0 0 0 0 0 0 0 0 0 0 0 0 0 0 0 0 0 0 0 0 0 0 0 0 0 0 0 0
0 0 0 0 0 0 0 0 0 0 0 0 0 0 0 0 0 0 0 0 0 0 0 0 0 0 0 0 0 0 0 0 0 0 0 0 0 0
0 0 0 0 0 0 0 0 0 0 0 0 0 0 0 0 0 0 0 0 0 0 0 0 0 0 0 0 0 0 0 0 0 0 0 0 0 0
0 0 0 0 0 0 0 0 0 0 0 0 0 0 0 0 0 0 0 0 0 0 0 0 0 0 0 0 0 0 0 0 0 0 0 0 0 0
0 0 0 0 0 0 0 0 0 0 0 0 0 0 0 0 0 0 0 0 0 0 0 0 0 0 0 0 0 0 0 0 0 0 0 0 0 0
0 0 0 0 0 0 0 0 0 0 0 0 0 0 0 0 0 0 0 0 0 0 0 0 0 0 0 0 0 0 0 0 0 0 0 0 0 0
0 0 0 0 0 0 0 0 0 0 0 0 0 0 0 0 0 0 0 0 0 0 0 0 0 0 0 0 0 0 0 0 0 0 0 0 0 0
0 0 0 0 0 0 0 0 0 0 0 0 0 0 0 0 0 0 0 0 0 0 0 0 0 0 0 0 0 0 0 0 0 0 0 0 0 0
0 0 0 0 0 0 0 0 0 0 0 0 0 0 0 0 0 0 0 0 0 0 0 0 0 0 0 0 0 0 0 0 0 0 0 0 0 0
0 0 0 0 0 0 0 0 0 0 0 0 0 0 0 0 0 0 0 0 0 0 0 0 0 0 0 0 0 0 0 0 0 0 0 0 0 0
0 0 0 0 0 0 0 0 0 0 0 0 0 0 0 0 0 0 0 0 0 0 0 0 0 0 0 0 0 0 0 0 0 0 0 0 0 0
0 0 0 0 0 0 0 0 0 0 0 0 0 0 0 0 0 0 0 0 0 0 0 0 0 0 0 0 0 0 0 0 0 0 0 0 0 0
0 0 0 0 0 0 0 0 0 0 0 0 0 0 0 0 0 0 0 0 0 0 0 0 0 0 0 0 0 0 0 0 0 0 0 0 0 0
0 0 0 0 0 0 0 0 0 0 0 0 0 0 0 0 0 0 0 0 0 0 0 0 0 0 0 0 0 0 0 0 0 0 0 0 0 0
0 0 0 0 0 0 0 0 0 0 0 0 0 0 0 0 0 0 0 0 0 0 0 0 0 0 0 0 0 0 0 0 0 0 0 0 0 0
Wind_Speed
10 10 9 9 9 9 9 9 10 12 11 5 4 5 7 8 13 9 8 13 13 13 12 12 9 10 12 13 17 23 26 24 21 20 21 22 22 21
9 10 9 8 7 8 8 8 8 10 11 5 6 8 10 11 15 10 9 15 12 12 11 11 8 9 12 14 16 21 24 24 22 21 22 23 22 20
8 8 8 8 7 6 7 7 7 8 11 10 8 8 10 11 11 9 8 7 6 10 11 10 8 8 11 14 16 19 23 25 24 23 23 24 23 21
8 8 7 7 8 7 6 7 7 8 9 13 10 9 10 9 10 9 7 6 4 8 11 9 7 7 10 13 15 18 21 23 24 24 24 24 23 22
11 10 9 8 8 8 8 6 7 8 8 9 10 8 7 7 7 7 6 4 5 5 7 6 5 6 8 12 14 17 19 22 23 23 22 22 23 23
12 12 12 11 10 10 9 8 8 9 8 8 7 6 5 6 4 3 3 3 3 3 4 4 4 6 8 11 14 16 17 19 22 23 22 22 22 23
12 12 13 18 20 16 12 10 10 8 7 7 6 5 5 4 3 2 2 2 2 1 1 1 1 2 5 7 10 13 16 18 20 22 23 23 23 23
11 12 13 14 19 20 23 21 18 13 10 7 6 7 7 7 6 5 3 1 1 0 1 1 2 3 3 4 8 12 14 16 18 20 22 24 25 25
10 11 12 15 18 7 15 19 17 21 19 10 7 8 8 8 8 7 5 3 1 2 2 1 1 2 3 4 10 12 13 15 16 18 19 21 24 27
10 11 12 12 16 13 11 12 10 10 14 10 7 7 8 9 7 7 6 6 4 1 1 1 1 1 2 3 10 13 13 14 15 16 19 20 22 25
10 12 15 11 23 24 14 14 13 10 15 19 18 15 16 16 12 6 5 3 1 0 1 0 1 0 2 2 5 12 13 14 15 17 19 21 24 24
8 11 19 21 24 25 14 13 14 12 12 13 12 13 10 11 14 7 5 3 2 0 1 0 1 0 2 1 2 5 8 12 16 19 23 28 29 19
9 9 11 25 25 25 20 14 18 16 11 10 8 8 8 7 7 7 5 3 3 2 2 1 1 1 1 2 2 4 6 7 10 15 24 29 30 25
8 8 12 24 24 24 19 22 24 18 10 10 9 10 10 10 9 9 7 5 5 5 6 3 1 1 1 3 4 5 8 8 10 12 12 20 23 27
6 16 20 23 20 15 22 25 19 12 11 11 11 10 9 9 8 8 7 6 5 4 4 3 3 2 2 3 6 7 9 9 10 13 13 12 13 15
5 11 17 19 16 17 17 14 11 12 12 10 10 10 9 9 9 9 7 7 4 4 5 4 1 1 1 3 11 13 10 9 10 13 15 13 11 10
5 5 6 7 9 9 10 10 10 11 11 11 11 11 11 11 10 9 8 7 6 5 5 4 7 10 12 7 9 11 13 15 13 13 16 16 12 10
7 4 5 6 7 8 9 9 9 10 11 11 11 11 11 10 10 8 8 8 7 7 6 3 3 7 8 11 15 10 14 15 14 12 13 18 15 10
4 3 4 4 5 6 6 6 7 8 8 9 10 10 10 10 10 10 10 8 8 8 7 6 3 4 10 7 10 14 11 15 16 14 12 14 16 12
2 3 3 4 4 4 5 5 6 7 7 8 9 9 10 10 10 11 10 11 9 8 9 9 9 6 7 8 6 8 12 9 15 18 16 14 13 17
5 4 3 3 3 3 3 4 4 5 6 6 7 8 9 9 10 10 10 15 12 10 10 9 8 9 6 9 12 10 12 16 12 13 19 17 14 10
6 5 4 3 3 2 3 3 4 4 5 6 6 7 7 8 9 11 10 9 9 9 9 8 9 9 8 12 15 15 16 15 18 22 17 10 8 10
8 7 5 4 3 2 2 2 3 3 3 4 5 5 6 7 7 8 9 9 9 9 9 9 10 11 11 11 13 14 18 15 12 14 16 22 26 27
Wind_Direction
277 276 273 272 271 269 269 271 283 295 299 285 278 297 313 306 303 304 306 312 319 318 317 312 285 237 215 206 195 190 191 191 191 188 186 187 187 184
280 279 281 280 278 274 273 274 272 278 285 281 278 283 289 292 294 297 297 303 306 307 310 312 289 237 212 201 192 185 185 184 187 188 189 187 184 179
297 298 299 300 300 296 288 285 282 281 284 288 282 281 279 280 284 284 280 278 284 298 306 311 294 239 211 198 188 183 182 183 185 189 192 188 182 176
333 331 327 332 327 317 311 305 299 292 286 289 288 283 275 274 274 273 274 272 270 292 301 310 294 239 210 196 187 182 181 182 186 189 191 186 179 173
360 354 346 344 349 338 329 326 314 308 295 286 284 280 274 270 269 267 261 257 263 273 297 307 284 232 207 196 188 183 180 182 184 186 187 184 177 173
5 1 351 350 355 346 343 342 328 320 314 302 290 284 282 275 261 258 263 239 247 266 302 306 262 218 200 194 190 185 181 181 183 183 181 177 172 169
358 355 349 355 358 1 355 356 345 335 335 331 327 319 317 326 325 307 265 258 249 240 298 290 209 198 189 192 188 181 179 180 181 180 176 170 167 164
352 348 343 345 354 4 359 0 358 351 352 349 341 341 341 344 337 329 312 266 249 40 9 290 178 185 176 175 180 177 176 177 177 177 175 171 166 162
348 345 345 345 351 356 354 356 355 356 356 355 343 341 336 338 336 331 332 329 311 349 13 339 185 180 163 168 173 178 177 174 173 173 172 171 167 162
342 341 339 337 340 12 357 347 350 352 349 349 344 338 337 333 334 319 305 300 285 272 75 333 312 152 146 161 177 178 177 172 168 166 165 165 162 158
344 349 345 345 352 10 4 349 350 354 352 354 359 0 360 355 4 351 332 299 277 183 117 330 326 43 120 143 171 176 174 169 164 160 157 153 147 141
348 347 347 1 2 7 8 355 355 355 346 343 349 352 351 352 7 7 340 322 319 324 87 78 314 307 121 92 130 156 162 160 155 150 144 139 132 126
352 346 347 4 7 6 9 4 2 1 346 343 345 349 351 352 351 346 333 307 306 314 1 17 319 304 168 122 89 114 128 134 133 133 134 133 131 129
352 343 354 7 9 7 9 9 7 4 354 353 356 359 357 353 344 334 323 303 270 274 298 305 279 264 202 127 113 102 99 102 110 110 112 115 116 121
359 359 5 8 9 5 7 10 7 1 360 359 357 355 348 340 337 337 337 330 309 285 292 267 247 277 261 142 123 121 105 90 100 107 106 106 111 118
6 358 4 5 10 8 7 6 3 3 4 357 352 348 348 352 359 358 355 351 349 339 341 352 45 85 79 134 130 126 116 111 109 105 103 94 87 90
14 1 357 358 3 3 4 5 3 2 2 357 357 356 358 2 3 3 4 7 14 355 346 10 61 74 58 54 123 118 116 112 113 114 108 98 85 89
16 355 353 356 359 360 360 359 1 3 0 358 360 359 360 2 4 5 11 15 15 4 355 348 101 102 79 42 26 114 118 116 114 111 113 112 104 95
12 337 334 338 342 348 351 352 353 352 353 357 0 360 360 3 8 11 14 16 15 9 2 355 357 121 120 94 17 24 113 123 119 110 105 110 114 114
326 311 312 318 326 336 343 347 346 350 356 358 0 1 1 4 10 14 16 21 18 16 21 24 23 42 105 112 97 43 46 107 124 120 114 105 101 106
322 308 297 299 307 321 331 339 344 349 354 355 360 0 1 5 10 13 16 22 29 27 32 29 28 48 76 95 95 81 64 65 90 119 126 121 116 110
327 312 297 285 285 296 314 331 344 352 356 359 357 358 359 5 9 11 15 19 25 30 36 37 37 52 71 99 106 104 98 90 83 81 73 88 125 133
333 323 304 286 269 260 268 300 327 342 354 357 357 357 0 6 7 12 15 21 28 34 42 53 59 65 73 85 98 103 102 100 94 83 75 83 93 101